Weather History for Novato, CA

Change the Weather History Date:

Monday, September 9, 2013

  Actual Average (KAPC) Record (KAPC)
Temperature  
Mean Temperature 73 °F 66 °F  
Max Temperature 98 °F 81 °F 92 °F (2002)
Min Temperature 48 °F 51 °F 43 °F (2002)
Degree Days  
Heating Degree Days 0    
Month to date heating degree days  
Since 1 July heating degree days  
Cooling Degree Days 8    
Month to date cooling degree days  
Year to date cooling degree days  
Growing Degree Days 23 (Base 50)    
Moisture  
Dew Point 53 °F    
Average Humidity 74    
Maximum Humidity 100    
Minimum Humidity 17    
Precipitation  
Precipitation 0.00 in - 0.33 in (1978)
Month to date precipitation  
Year to date precipitation  
Since 1 July precipitation  
Sea Level Pressure  
Sea Level Pressure 29.77 in    
Wind  
Wind Speed 6 mph (North)    
Max Wind Speed 15 mph    
Max Gust Speed -    
Visibility 10 miles    
Events Rain    
T = Trace of Precipitation, MM = Missing Value Source: NWS Daily Summary

Daily Weather History Graph

Daily Weather History Graph

Search for Another Location

Airport:

Trip Planner

Search our weather history database for the weather conditions in past years. The results will help you decide how hot, cold, wet, or windy it might be!

Date:

Astronomy

Sep. 09, 2013 Rise Set
Actual Time 6:47 AM PDT 7:27 PM PDT
Civil Twilight 6:20 AM PDT 7:53 PM PDT
Nautical Twilight 5:48 AM PDT 8:24 PM PDT
Astronomical Twilight 5:16 AM PDT 8:57 PM PDT
Moon 11:09 AM PDT (9/9) 9:52 PM PDT (9/9)
Length of Visible Light 13h 33m
Length of Day
12h 39m
Waxing Crescent, 20% of the Moon is Illuminated
Sep 9
Waxing Crescent
Sep 12
First Quarter
Sep 19
Full
Sep 26
Last Quarter
Oct 4
New

Hourly Weather History & Observations

Time (PDT) Temp. Heat Index Dew Point Humidity Pressure Visibility Wind Dir Wind Speed Gust Speed Precip Events Conditions
12:15 AM 53.6 °F - 53.6 °F 100% 29.80 in 10.0 mi North 5.8 mph - N/A   Clear
12:35 AM 53.6 °F - 53.6 °F 100% 29.80 in 10.0 mi North 3.5 mph - N/A   Clear
12:55 AM 53.6 °F - 53.6 °F 100% 29.81 in 10.0 mi NNW 5.8 mph - N/A   Clear
1:15 AM 53.6 °F - 53.6 °F 100% 29.81 in 10.0 mi North 3.5 mph - N/A   Clear
1:35 AM 53.6 °F - 53.6 °F 100% 29.80 in 10.0 mi North 3.5 mph - N/A   Clear
1:55 AM 50.0 °F - 50.0 °F 100% 29.80 in 10.0 mi Calm Calm - N/A   Clear
2:15 AM 51.8 °F - 51.8 °F 100% 29.80 in 10.0 mi North 3.5 mph - N/A   Clear
2:35 AM 50.0 °F - 50.0 °F 100% 29.80 in 10.0 mi North 5.8 mph - N/A   Clear
2:55 AM 50.0 °F - 50.0 °F 100% 29.80 in 10.0 mi NNW 3.5 mph - N/A   Clear
3:15 AM 50.0 °F - 50.0 °F 100% 29.79 in 10.0 mi NNW 3.5 mph - N/A   Clear
3:35 AM 50.0 °F - 50.0 °F 100% 29.79 in 10.0 mi North 4.6 mph - N/A   Clear
3:55 AM 50.0 °F - 50.0 °F 100% 29.79 in 10.0 mi North 3.5 mph - N/A   Clear
4:15 AM 50.0 °F - 50.0 °F 100% 29.79 in 10.0 mi Calm Calm - N/A   Clear
4:35 AM 50.0 °F - 50.0 °F 100% 29.79 in 10.0 mi Calm Calm - N/A   Clear
4:55 AM 50.0 °F - 50.0 °F 100% 29.79 in 10.0 mi North 4.6 mph - N/A   Clear
5:15 AM 48.2 °F - 48.2 °F 100% 29.80 in 10.0 mi NNW 5.8 mph - N/A   Clear
5:35 AM 50.0 °F - 50.0 °F 100% 29.80 in 4.0 mi North 4.6 mph - N/A   Scattered Clouds
5:55 AM 48.2 °F - 48.2 °F 100% 29.80 in 8.0 mi North 3.5 mph - N/A   Scattered Clouds
6:15 AM 50.0 °F - 50.0 °F 100% 29.81 in 1.8 mi North 6.9 mph - N/A   Mostly Cloudy
6:35 AM 48.2 °F - 48.2 °F 100% 29.81 in 10.0 mi NNW 4.6 mph - N/A   Clear
6:55 AM 48.2 °F - 48.2 °F 100% 29.82 in 10.0 mi NNW 3.5 mph - N/A   Clear
7:15 AM 48.2 °F - 48.2 °F 100% 29.82 in 10.0 mi Calm Calm - N/A   Clear
7:35 AM 50.0 °F - 50.0 °F 100% 29.83 in 10.0 mi North 3.5 mph - N/A   Clear
7:55 AM 50.0 °F - 50.0 °F 100% 29.83 in 9.0 mi North 4.6 mph - N/A   Partly Cloudy
8:15 AM 53.6 °F - 53.6 °F 100% 29.83 in 10.0 mi North 4.6 mph - N/A   Clear
8:35 AM 55.4 °F - 55.4 °F 100% 29.83 in 10.0 mi NNE 4.6 mph - N/A   Clear
8:55 AM 57.2 °F - 55.4 °F 94% 29.83 in 10.0 mi NNE 3.5 mph - N/A   Clear
9:15 AM 59.0 °F - 55.4 °F 88% 29.83 in 10.0 mi North 3.5 mph - N/A   Clear
9:35 AM 60.8 °F - 57.2 °F 88% 29.82 in 10.0 mi North 3.5 mph - N/A   Clear
9:55 AM 64.4 °F - 55.4 °F 73% 29.82 in 10.0 mi Calm Calm - N/A   Clear
10:15 AM 66.2 °F - 55.4 °F 68% 29.82 in 10.0 mi Calm Calm - N/A   Clear
10:35 AM 68.0 °F - 55.4 °F 64% 29.82 in 10.0 mi North 4.6 mph - N/A   Clear
10:55 AM 71.6 °F - 55.4 °F 57% 29.81 in 10.0 mi Calm Calm - N/A   Clear
11:15 AM 73.4 °F - 55.4 °F 53% 29.81 in 10.0 mi Calm Calm - N/A   Clear
11:35 AM 77.0 °F - 55.4 °F 47% 29.80 in 10.0 mi North 4.6 mph - N/A   Clear
11:55 AM 80.6 °F 80.5 °F 55.4 °F 42% 29.79 in 10.0 mi North 4.6 mph - N/A   Clear
12:15 PM 84.2 °F 83.0 °F 55.4 °F 37% 29.78 in 10.0 mi NE 10.4 mph - N/A   Clear
12:55 PM 89.6 °F 87.3 °F 53.6 °F 29% 29.76 in 10.0 mi NNE 9.2 mph - N/A   Clear
1:15 PM 91.4 °F 89.1 °F 53.6 °F 28% 29.75 in 10.0 mi North 11.5 mph - N/A   Clear
1:35 PM 93.2 °F 90.8 °F 53.6 °F 26% 29.74 in 10.0 mi North 12.7 mph - N/A   Clear
1:55 PM 95.0 °F 92.7 °F 53.6 °F 25% 29.73 in 10.0 mi North 12.7 mph - N/A   Clear
2:15 PM 96.8 °F - 51.8 °F 22% 29.72 in 10.0 mi North 13.8 mph - N/A   Clear
2:35 PM 96.8 °F - 50.0 °F 20% 29.72 in 10.0 mi West 5.8 mph - N/A   Clear
2:55 PM 98.6 °F - 51.8 °F 21% 29.72 in 10.0 mi SE 3.5 mph - N/A   Clear
3:15 PM 96.8 °F - 50.0 °F 20% 29.71 in 10.0 mi ESE 5.8 mph - N/A Rain Light Rain
3:35 PM 98.6 °F - 46.4 °F 17% 29.71 in 10.0 mi NNW 10.4 mph - N/A   Clear
3:55 PM 95.0 °F - 46.4 °F 19% 29.71 in 10.0 mi WNW 8.1 mph - N/A   Clear
4:15 PM 95.0 °F - 46.4 °F 19% 29.70 in 10.0 mi North 12.7 mph - N/A   Clear
4:35 PM 91.4 °F - 50.0 °F 24% 29.70 in 10.0 mi North 13.8 mph - N/A   Clear
4:55 PM 91.4 °F - 44.6 °F 20% 29.70 in 10.0 mi North 15.0 mph - N/A   Clear
5:15 PM 84.2 °F 83.0 °F 55.4 °F 37% 29.71 in 10.0 mi NNE 15.0 mph - N/A   Clear
5:35 PM 84.2 °F 83.0 °F 55.4 °F 37% 29.70 in 10.0 mi NNE 12.7 mph - N/A   Clear
5:55 PM 80.6 °F 80.5 °F 55.4 °F 42% 29.70 in 10.0 mi NNE 12.7 mph - N/A   Clear
6:15 PM 78.8 °F - 55.4 °F 44% 29.70 in 10.0 mi North 11.5 mph - N/A   Clear
6:35 PM 77.0 °F - 55.4 °F 47% 29.70 in 10.0 mi NE 6.9 mph - N/A   Clear
6:55 PM 71.6 °F - 57.2 °F 60% 29.70 in 10.0 mi NE 8.1 mph - N/A   Clear
7:15 PM 68.0 °F - 57.2 °F 68% 29.70 in 10.0 mi North 11.5 mph - N/A   Clear
7:35 PM 66.2 °F - 57.2 °F 73% 29.71 in 10.0 mi North 12.7 mph - N/A   Clear
7:55 PM 64.4 °F - 57.2 °F 77% 29.71 in 10.0 mi North 13.8 mph - N/A   Clear
8:15 PM 62.6 °F - 57.2 °F 82% 29.71 in 10.0 mi North 8.1 mph - N/A   Clear
8:35 PM 62.6 °F - 57.2 °F 82% 29.72 in 10.0 mi North 13.8 mph - N/A   Clear
8:55 PM 60.8 °F - 59.0 °F 94% 29.73 in 10.0 mi North 10.4 mph - N/A   Clear
9:15 PM 59.0 °F - 59.0 °F 100% 29.73 in 10.0 mi North 11.5 mph - N/A   Clear
9:35 PM 59.0 °F - 59.0 °F 100% 29.73 in 10.0 mi North 12.7 mph - N/A   Clear
9:55 PM 59.0 °F - 59.0 °F 100% 29.73 in 10.0 mi North 9.2 mph - N/A   Clear
10:15 PM 57.2 °F - 57.2 °F 100% 29.74 in 10.0 mi North 10.4 mph - N/A   Clear
10:35 PM 57.2 °F - 57.2 °F 100% 29.74 in 10.0 mi North 10.4 mph - N/A   Clear
10:55 PM 57.2 °F - 57.2 °F 100% 29.74 in 10.0 mi North 9.2 mph - N/A   Clear
11:15 PM 57.2 °F - 57.2 °F 100% 29.74 in 10.0 mi North 8.1 mph - N/A   Clear
11:35 PM 57.2 °F - 57.2 °F 100% 29.74 in 10.0 mi North 6.9 mph - N/A   Clear
11:55 PM 55.4 °F - 55.4 °F 100% 29.74 in 10.0 mi NNW 5.8 mph - N/A   Clear